Flag for Canada Weather past 2 weeks in Kugluktuk, Nunavut, Canada

16 °F

Passing clouds.

Feels Like: 2 °F
Forecast: 20 / 29 °F
Wind: 13 mph from Southwest

Location: Coppermine

Current Time: Oct 7, 2015 at 1:15:21 AM

Latest Report: Oct 7, 2015 at 12:00 AM

Visibility: 15 mi

Pressure: 29.98 "Hg

Humidity: 86%

Dew point: 12 °F

Location of KugluktukLocation

Historic Weather in Kugluktuk — Graph


Kugluktuk temperature yesterday

Maximum temperature yesterday: 30 °F (at 4:00 PM)
Minimum temperature yesterday: 19 °F (at 11:00 PM)
Average temperature yesterday: 24 °F

Past Weeks' High & Low Weather Summary

High55 °F (Sep 30, 1:00 PM)100% (Sep 22, 11:57 PM)30.50 "Hg (Sep 22, 11:57 PM)
Low16 °F (Oct 7, 12:00 AM)48% (Oct 2, 4:00 PM)28.90 "Hg (Sep 26, 6:00 AM)
Average33 °F81%29.86 "Hg
* Reported Midnight between Sep 21 and Sep 22 — Midnight between Oct 6 and Oct 7, Kugluktuk, Weather by CustomWeather, © 2015

Note: Actual official high and low records may vary slightly from our data, if they occured in-between our weather recording intervals... More about our weather records


Kugluktuk weather history for previous 24 hours

Time TempWeatherWind HumidityBarometerVisibility
12:00 AM
Wed, Oct 7
16 °FPassing clouds.13 mph86%29.98 "Hg15 mi
11:00 PM
Tue, Oct 6
19 °FPassing clouds.14 mph73%29.98 "Hg15 mi
10:00 PM21 °FPassing clouds.13 mph68%29.98 "Hg15 mi
9:00 PM21 °FPassing clouds.12 mph80%29.98 "Hg15 mi
8:00 PM21 °FScattered clouds.10 mph80%29.99 "Hg15 mi
7:00 PM23 °FScattered showers. Scattered clouds.10 mph74%29.99 "Hg15 mi
6:00 PM27 °FScattered showers. Scattered clouds.8 mph59%30.00 "Hg15 mi
5:00 PM28 °FPartly sunny.10 mph55%30.00 "Hg15 mi
4:00 PM30 °FScattered clouds.12 mph51%30.00 "Hg15 mi
3:00 PM28 °FBroken clouds.13 mph59%30.01 "Hg15 mi
2:00 PM28 °FPartly sunny.13 mph59%30.01 "Hg15 mi
1:00 PM27 °FScattered clouds.14 mph64%30.00 "Hg15 mi
12:00 PM25 °FPartly sunny.14 mph69%30.01 "Hg15 mi
11:00 AM25 °FPartly sunny.13 mph69%30.01 "Hg15 mi
10:00 AM23 °FPassing clouds.14 mph80%30.01 "Hg15 mi
9:00 AM21 °FPassing clouds.14 mph93%30.00 "Hg15 mi
8:00 AM21 °FPassing clouds.12 mph86%30.00 "Hg15 mi
7:00 AM23 °FPartly cloudy.9 mph86%29.99 "Hg15 mi
6:00 AM23 °FPassing clouds.10 mph80%29.99 "Hg15 mi
5:00 AM23 °FScattered showers. Passing clouds.10 mph86%29.98 "Hg10 mi
4:00 AM23 °FSnow flurries. Overcast.12 mph86%29.96 "Hg10 mi
3:00 AM23 °FPassing clouds.14 mph86%29.95 "Hg15 mi
2:00 AM23 °FPassing clouds.16 mph86%29.93 "Hg15 mi
1:00 AM25 °FPassing clouds.17 mph86%29.92 "Hg15 mi
Weather by CustomWeather, © 2015

See weather overviewHow to use our weather pages